Погода в Басах

Россия / Астраханская область     46°06′54″N   47°07′52″E
темп.,
°C
ветер,
м/с
пор.,
м/с
влажн.,
%
обл.,
%
осадки,
мм/ч
давл.,
гПа
погр.,
м
19 мая, ср
ср1901:00+20сз510600 0.0 1010265
04:00+18с511700 0.0 1009290
07:00+19ссв69685 0.0 1009347
10:00+26св55422 0.0 1008658
13:00+31юв0223100 0.0 10071534
16:00+34зюз33185 0.0 10062621
19:00+24зсз161848100 0.1 1011866
22:00+20сз101637100 0.4 1012647
20 мая, чт
чт2001:00+19сз91546100 1.2 1014527
04:00+17ссз713613 1.2 1015536
07:00+18ссз612565 0.0 1016650
10:00+22ссз8103680 0.0 10161190
13:00+26сз67243 0.0 10151759
16:00+28зсз44235 0.0 10152319
19:00+27з222697 0.0 10152113
22:00+22ююз46360 0.0 1016106
21 мая, пт
пт2101:00+20ююз34425 0.0 101658
04:00+19юв334626 0.0 101621
07:00+21вюв35475 0.0 1017156
10:00+27юв782563 0.0 10161362
13:00+29юв1010225 0.0 10161486
16:00+29юв1011210 0.0 10151381
19:00+27вюв812280 0.0 1015968
22:00+22вюв615410 0.0 1015382
22 мая, сб
сб2201:00+22вюв7174368 0.0 1014387
04:00+22вюв818430 0.0 1013436
07:00+24вюв917445 0.0 1013619
10:00+31вюв1216275 0.0 10121155
13:00+33юв1316215 0.0 10121423
16:00+33юв12152013 0.0 10111441
19:00+30вюв8132728 0.0 1010781
22:00+25в716405 0.0 1009342
23 мая, вс
вс2301:00+24в7174529 0.0 1008334
04:00+23в614515 0.0 1008227
07:00+25юв817450 0.0 1008472
10:00+30ююв1419220 0.0 1009932
13:00+32юв1216200 0.0 1010907
16:00+32ююв1116180 0.0 10101000
19:00+28юв817290 0.0 1010648
22:00+23юв5114552 0.0 1011262